Погода Томпо

Погода Томпо : погода сейчас, прогноз погоды и архив. Всё, что Вы хотите узнать о погоде Томпо!

Хотите узнать прогноз погоды Томпо? Тогда Вам сюда: Погода Томпо

Поиск расширенной информации на нашем сайте:

Другие новости

Новости СМИ2

Главная страница сайта

Новости сайта

02.10.2013

Напоминаем, что на нашем новом сайте вы можете получить высокодетализированные прогнозы погоды по пунктам России, СНГ и мира (включающие важные для авиации метеовеличины, такие как направление и скорость ветра, видимость, явления погоды, количество и форма облачности, нижняя и верхняя граница облачности), а также ознакомиться с разнообразными материалами по авиационной метеорологии и подборкой полезных ссылок на эту тему.

Сайт Метеоцентр.Азия посвящён разработке технологий оптимизации авиаметеорологического обслуживания, включая проектирование и перспективное создание нескольких автоматизированных авиаметеорологических систем:
- система выпуска высокодетальных прогностических карт явлений погоды для нижнего воздушного пространства по России и ближнему зарубежью;
- система верификации прогнозов TAF (выпускаемых синоптиками официальных АМСГ РФ и ближнего зарубежья) и AUTOTAF (выпускаемых сайтом Метеоцентр.Азия) - выявление ошибок, онлайн-сопоставление с фактической погодой METAR, автоматическое внесение коррективов в прогнозы при резком отклонении фактической погоды от прогноза, подсчёт оправдываемости прогнозов по элементам и в целом;
- система обработки, анализа и отображения авиаметеорологической информации для применения провайдерами метеорологической информации.


Погода Томпо - сегодня

Время (UTC), дата Ветер
(°,м/с) 
Видим.   Явления Облачность Т
(°С)
Тd
(°С)
f(%) Тe
(°С)
Pmin
(гПа)
dP
(гПа)
Po
(мм)
O2
(г/м3)
Тmin Tmax R s Состояние
почвы
18 13.01.17 360 (С) //  20000 м    6/0 средняя, верхняя 
[Ac As|Ci fib]
-35.6 -38.4 75 -36  1045.3  740  345           
21 13.01.17 360 (С) //  20000 м    6/0 средняя, верхняя 
[Ac As|Cs]
-36.6 -38.8 80 -37    0.7  741  347           
00 14.01.17 360 (С) //  20000 м    6/0 средняя, верхняя 
[Ac As|Cs]
-37.5 -39.9 78 -38  1047.6  741  348  -37.8         
03 14.01.17 360 (С) //  20000 м    8/0 средняя, верхняя 
[Ac As|Cs]
-36.1 -38.4 79 -36  1047.2  0.1  741  346           
06 14.01.17 360 (С) //  20000 м    10/0 средняя, верхняя 
[As trans|Cs]
-33.7 -36.6 75 -34  1046.6  -0.1  741  343           
09 14.01.17 350 (С) //  20000 м    8/0 средняя, верхняя 
[As trans|Cs]
-34.1 -37.1 74 -34  1046.8  0.2  741  343    -32.4       
12 14.01.17 360 (С) //  20000 м    6/0 средняя, верхняя 
[As trans|Cs]
-36.4 -39.4 74 -36  1047.9  0.5  742  347           
15 14.01.17 360 (С) //  20000 м    ясно 
-37.2 -40.1 74 -37  1048.3  0.1  742  348           
18 14.01.17 360 (С) //  20000 м    4/0 верхняя 
[Cs]
-37.2 -40.1 74 -37  1048.6  0.3  742  348           
21 14.01.17 360 (С) //  20000 м    3/0 верхняя 
[Ci fib]
-37.3 -40.1 75 -37  1048.9  0.3  742  348  -37.4      20  равномерный
сухой снег
100% 
00 15.01.17 330 (СЗ) //  20000 м    1/0 верхняя 
[Ci fib]
-38 -40.9 74 -38  1049.1  742  350           
03 15.01.17 360 (С) //  20000 м    ясно 
-39.6 -42.3 76 -40  1049.1  -0.5  742  352           
06 15.01.17 320 (СЗ) //  20000 м    ясно 
-37.2 -40.1 74 -37  1047.3  -0.9  741  348           
09 15.01.17 320 (СЗ) //  20000 м    ясно 
-38.5 -41.4 74 -39  1048.2  0.3  742  350    -37.2       
12 15.01.17 360 (С) //  20000 м    ясно 
-39.1 -41.8 75 -39  1048.1  -0.1  741  351           
15 15.01.17 360 (С) //  20000 м    ясно 
-40.1 -42.8 75 -40  1047.7  -0.6  741  352           
18 15.01.17 360 (С) //  20000 м    ясно 
-41.9 -44.4 77 -42  1047.9  -0.4  741  355           
21 15.01.17 360 (С) //  20000 м    ясно 
-41.2 -43.8 76 -41  1046.8  -0.7  740  353  -41.9      20  равномерный
сухой снег
100% 
00 16.01.17 360 (С) //  20000 м    ясно 
-41.7 -44.4 75 -42  1047  740  354           
03 16.01.17 360 (С) //  20000 м    3/0 верхняя 
[Ci fib]
-40.5 -43.3 74 -41  1046.4  -0.4  740  352           
06 16.01.17 360 (С) //  20000 м    1/0 верхняя 
[Ci fib]
-38.7 -41.4 75 -39  1044.7  -1.1  739  349           
09 16.01.17 360 (С) //  20000 м    ясно 
-38.9 -41.8 74 -39  1044.3  -0.4  739  349    -38.7       
12 16.01.17 360 (С) //  20000 м    ясно 
-39 -41.8 75 -39  1043.3  -0.9  738  349           
15 16.01.17 360 (С) //  20000 м    ясно 
-38.9 -41.8 74 -39  1042.6  -0.7  738  349           
18 16.01.17 360 (С) //  20000 м    ясно 
-40 -42.8 75 -40  1042.3  -0.5  737  350           
Время (UTC), дата Ветер
(°,м/с) 
Видим.   Явления Облачность Т
(°С)
Тd
(°С)
f(%) Тe
(°С)
Pmin
(гПа)
dP
(гПа)
Po
(мм)
O2
(г/м3)
Тmin Tmax R s Состояние
почвы

Для получения пояснительной информации подведите курсор к названию столбца.

ПОГОДА Томпо - архив

Всё, что Вы хотите узнать о погоде Томпо - удобно и подробно!

Выберите нужную дату (начиная с 1 января 2015* года) и нажмите кнопку "Найти".
Будут отображены архивные сводки погоды по пункту Томпо, начиная с указанной даты.


Отображать данные в формате CSV (для использования в таблицах Excel)


Внимание! Наш архив погоды предназначен исключительно для личного некоммерческого использования в познавательных целях. Если Вам необходимы официальные справки о состоянии погоды (для производственных, юридических, коммерческих и т.п. целей), обращайтесь в органы Росгидромета.

*Примечание: данная дата относится к архиву по метеостанциям СССР (Россия, СНГ, Балтия).
Архив по метеостанциям Зарубежной Европы и Азии (кроме Китая) хранится 10 дней, по другим регионам земного шара (Китай, Африка, Америка, Австралия, Океания) - 1 день.

Томпо - район местоположения метеостанции


Название, широта, долгота, высота метеостанции:
Томпо 63.9°ш. 135.9°д. 402 м над ур. моря [Российская Федерация]

Дополнительная информация

В oтличие oт бoльшинства пoгoдных сайтoв мы публикуем пoдрoбную метеoинфoрмацию в детальнoм прoфессиoнальнoм фoрмате.

Характеристики температуры и влажнoсти вoздуха измеряются на высoте 2 м в тени вдали oт зданий и деревьев.
Скoрoсть ветра измеряется на высoте 10 м (на урoвне рoста челoвека скoрoсть ветра ниже в 1.5-2 раза). Если метеoстанция нахoдится в гoрoде или в лесу, тo скoрoсть ветра занижена на 2-4 м/с пo сравнению с oткрытым местoм. Скoрoсть ветра над акватoриями крупных рек и oзёр, а также на вершинах хoлмoв на 2-5 м/с выше, чем в oбычных услoвиях.
Атмoсфернoе давление в разных тoчках местнoсти мoжет значительнo oтличаться oт давления на метеoстанции, в зависимoсти oт услoвий рельефа (при пoдъёме на 10 м давление пoнижается примернo на 1 мм рт.ст.).